sat.trackr.live / text

‹ back to catalog

JACKAL X-1L-001

NORAD 59127 · 2024-043AF

PAYLOAD ACTIVE UNKNOWN

§ Identity

Operator
Country
US
Launch date
2024-03-04
Launch site
AFWTR
Launch vehicle
Mass (kg)
RCS (m²)

External: N2YO · Heavens-Above · Gunter

§ Orbital elements

Epoch: 2026-09-22T16:23:11.131008Z

Period
93.07 min
Inclination
97.5705°
Eccentricity
0.0005728
Mean motion
15.47276747 rev/d
Perigee alt
420.8 km
Apogee alt
428.6 km
Semi-major
6,802.8 km
B*
2.7054e-4
RAAN
54.8354°
Arg perigee
217.6882°
Mean anomaly
142.3967°
Rev number
14,261

§ Raw data

JACKAL X-1L-0011 59127U 24043AF  26265.68276772  .00013706  00000+0  27054-3 0  99902 59127  97.5705  54.8354 0005728 217.6882 142.3967 15.47276747142610

JSON: /api/v1/satellites/59127 · /tle

For live sub-satellite position, see the globe view (requires WebGL).

§ Visibility from observer

Set your observer location to see the next 7 days of passes ≥ 10°. The values pass through the URL so the page stays shareable.

No JS? Fill the form by hand. The geolocation button needs JavaScript.